COSMOS 2251 DEB, 40792

Orbit data source: Space-Track

COSMOS 2251 DEB, 40792 is space debris in LEO originally from a launch on Wed, 16 Jun 1993 UTC launched from the Plesetsk Missile And Space Complex (PKMTR). The debris from Iridium 33, an American commercial communications satellite, has been tracked extensively since its accidental collision with the defunct Russian satellite Cosmos 2251 in 2009. This event, occurring at high speed in low Earth orbit (LEO), generated thousands of pieces of space debris, significantly increasing the risk of further collisions. The Iridium 33 debris cloud has impacted space traffic management and orbital debris mitigation strategies, making it a subject of ongoing study in space situational awareness.

Loading next visibility...
Identifier
40792, 1993-036BVV
Orbit
LEO
Country
Flag of CISCIS
Related business
Manufacturer
Unknown
Mission
Spacecraft
Bus & Motor
Unknown
Mass
Unknown
Launch date (UTC)
1993-06-16 (33 years ago)
Launch vehicle
Unknown
Launch site
Plesetsk Missile And Space Complex (PKMTR)
Object type
Payload
Rocket body
Debris
Shape & HBR
Unknown shape, 0.1 m
Radar Cross Section
Small (<0.1 m²)

Expand to show TLE details & history
Last TLE update: 1 day ago

TLE from 1 day ago
0 COSMOS 2251 DEB
1 40792U 93036BVV 26034.74427675  .00007057  00000-0  12226-2 0  9994
2 40792  74.0461 305.0822 0015719  30.6833   0.8617 14.68383799639628
Epoch: 2026-02-03T17:51Z
TLE epoch observation values (Epoch: 2026-02-03T17:51:45.511Z)
Latitude
30.26259°
Longitude
-87.22874°
Altitude
658.671 km
Speed
7.537 km/s
True Right ascension
20h 58m 31s
True Declination
30° 06' 40"
Sunlit
Object was in daylight at epoch
Visualization orbit readout
Latitude
Unknown
Longitude
Unknown
Altitude
Unknown
Speed
Unknown
Apparent Right ascension
Unknown
Apparent Declination
Unknown
Sunlit
N/A
Visualization observer readout
Local Sidereal Time
02:30:03
Azimuth
Unknown
Elevation
Unknown
Doppler factor
Unknown
Orbital elements
Apogee altitude
674.889 km
Perigee altitude
652.751 km
Semi-major axis
7,041.957 km
Eccentricity
0.00157
Inclination
74.0461°
RAAN
305.0822°
Arg. of periapsis
30.6833°
True anomaly
0.86441°
Mean anomaly
0.8617°
Eccentric anomaly
0.86306°
Mean motion
3.67285 °/min
Orbital period
98.02 mins
BSTAR
0.0012226

Documentation

Showing up to 5 results
|